Torna al catalogo

SL-16 DEB

AttivoLEO
NORAD 44574·DEBRIS·🇷🇺 Russia

Lanciato Dec 25, 1992 da Baikonur Cosmodrome

Loading…

Prossimi Passaggi (prossime 24 ore)

TLE

AggiornatoSource: Space-Track

Epoca: Sep 13, 2026, 23:47 UTC

1 44574U 92093LW  26256.99101466  .00004322  00000-0  99168-3 0  9991
2 44574  71.1158 250.7779 0079957 216.5185 174.9630 14.54128449667664

Traccia SL-16 DEB in tempo reale con AllMySat

Download on the App Store